When you browse on this site, cookies collect data to enhance your experience and personalize the content and advertising you see.
Visit our Privacy Policy to learn more. By continuing to use the site, you agree to this use of cookies and data.
  • In United Kingdom
  • List of Countries
  • For 7 days
  • Water Temperature
  • Weather Map
  • Weather Widgets
  • user-avatar
    Login

    Hourly Weather Ambattur

    Today, 6 April, Monday

    Time Temperature Precipitation Wind Pressure Humidity
    00:00 +29°C° 0 mm 3 mps 757 mmHg 88%
    01:00 +29°C° 0 mm 3 mps 757 mmHg 88%
    02:00 +28°C° 0 mm 2 mps 756 mmHg 89%
    03:00 +29°C° 0 mm 2 mps 756 mmHg 88%
    04:00 +29°C° 0 mm 3 mps 756 mmHg 88%
    05:00 +30°C° 0 mm 3 mps 757 mmHg 83%
    06:00 +30°C° 0 mm 3 mps 757 mmHg 77%
    07:00 +32°C° 0 mm 4 mps 758 mmHg 72%
    08:00 +33°C° 0 mm 4 mps 758 mmHg 66%
    09:00 +34°C° 0 mm 4 mps 758 mmHg 61%
    10:00 +36°C° 0 mm 4 mps 758 mmHg 57%
    11:00 +37°C° 0 mm 4 mps 758 mmHg 52%
    12:00 +37°C° 0 mm 5 mps 757 mmHg 49%
    13:00 +39°C° 0 mm 5 mps 756 mmHg 47%
    14:00 +40°C° 0 mm 6 mps 755 mmHg 44%
    15:00 +38°C° 0 mm 6 mps 755 mmHg 51%
    16:00 +36°C° 0 mm 7 mps 755 mmHg 58%
    17:00 +34°C° 0 mm 6 mps 754 mmHg 65%
    18:00 +33°C° 0 mm 6 mps 755 mmHg 71%
    19:00 +32°C° 0 mm 5 mps 756 mmHg 77%
    20:00 +29°C° 0 mm 4 mps 757 mmHg 83%
    21:00 +29°C° 0 mm 4 mps 757 mmHg 85%
    22:00 +29°C° 0 mm 3 mps 757 mmHg 87%
    23:00 +28°C° 0 mm 2 mps 757 mmHg 89%

    Tomorrow, 7 April, Tuesday

    Time Temperature Precipitation Wind Pressure Humidity
    00:00 +28°C° 0 mm 2 mps 756 mmHg 90%
    01:00 +28°C° 0 mm 2 mps 756 mmHg 92%
    02:00 +27°C° 0 mm 3 mps 755 mmHg 93%
    03:00 +27°C° 0 mm 3 mps 755 mmHg 93%
    04:00 +27°C° 0 mm 3 mps 755 mmHg 94%
    05:00 +27°C° 0 mm 3 mps 755 mmHg 94%
    06:00 +28°C° 0 mm 3 mps 756 mmHg 85%
    07:00 +30°C° 0 mm 4 mps 756 mmHg 76%
    08:00 +33°C° 0 mm 5 mps 757 mmHg 67%
    09:00 +35°C° 0 mm 5 mps 757 mmHg 57%
    10:00 +37°C° 0 mm 5 mps 757 mmHg 48%
    11:00 +40°C° 0 mm 5 mps 756 mmHg 38%
    12:00 +40°C° 0 mm 6 mps 755 mmHg 38%
    13:00 +40°C° 0 mm 6 mps 754 mmHg 39%
    14:00 +40°C° 0 mm 7 mps 754 mmHg 40%
    15:00 +38°C° 0 mm 7 mps 753 mmHg 45%
    16:00 +36°C° 0 mm 7 mps 753 mmHg 51%
    17:00 +34°C° 0 mm 7 mps 753 mmHg 57%
    18:00 +33°C° 0 mm 6 mps 754 mmHg 63%
    19:00 +32°C° 0 mm 6 mps 755 mmHg 70%
    20:00 +29°C° 0 mm 5 mps 756 mmHg 76%
    21:00 +29°C° 0 mm 5 mps 756 mmHg 79%
    22:00 +29°C° 0 mm 4 mps 756 mmHg 81%
    23:00 +28°C° 0 mm 4 mps 756 mmHg 83%

    Day after tomorrow, 8 April, Wednesday

    Time Temperature Precipitation Wind Pressure Humidity
    00:00 +28°C° 0 mm 4 mps 755 mmHg 85%
    01:00 +27°C° 0 mm 4 mps 755 mmHg 88%
    02:00 +27°C° 0 mm 4 mps 755 mmHg 90%
    03:00 +27°C° 0 mm 4 mps 755 mmHg 91%
    04:00 +27°C° 0 mm 4 mps 755 mmHg 91%
    05:00 +27°C° 0 mm 4 mps 755 mmHg 92%
    06:00 +28°C° 0 mm 4 mps 756 mmHg 82%
    07:00 +30°C° 0 mm 5 mps 756 mmHg 72%
    08:00 +33°C° 0 mm 5 mps 757 mmHg 62%
    09:00 +35°C° 0 mm 5 mps 757 mmHg 52%
    10:00 +37°C° 0 mm 4 mps 757 mmHg 42%
    11:00 +41°C° 0 mm 4 mps 756 mmHg 31%
    12:00 +41°C° 0 mm 5 mps 756 mmHg 32%
    13:00 +41°C° 0 mm 5 mps 755 mmHg 33%
    14:00 +41°C° 0 mm 6 mps 754 mmHg 33%
    15:00 +40°C° 0 mm 6 mps 753 mmHg 40%
    16:00 +38°C° 0 mm 7 mps 753 mmHg 47%
    17:00 +35°C° 0 mm 7 mps 753 mmHg 54%
    18:00 +34°C° 0 mm 6 mps 754 mmHg 60%
    19:00 +32°C° 0 mm 5 mps 754 mmHg 65%
    20:00 +30°C° 0 mm 4 mps 755 mmHg 71%
    21:00 +30°C° 0 mm 4 mps 755 mmHg 74%
    22:00 +29°C° 0 mm 4 mps 755 mmHg 77%
    23:00 +29°C° 0 mm 3 mps 755 mmHg 79%

    9 April, Thursday

    Time Temperature Precipitation Wind Pressure Humidity
    00:00 +28°C° 0 mm 3 mps 755 mmHg 81%
    01:00 +28°C° 0 mm 3 mps 755 mmHg 83%
    02:00 +28°C° 0 mm 4 mps 754 mmHg 86%
    03:00 +28°C° 0 mm 4 mps 754 mmHg 86%
    04:00 +28°C° 0 mm 4 mps 755 mmHg 87%
    05:00 +28°C° 0 mm 4 mps 755 mmHg 88%
    06:00 +29°C° 0 mm 5 mps 756 mmHg 80%
    07:00 +32°C° 0 mm 5 mps 756 mmHg 72%
    08:00 +34°C° 0 mm 5 mps 757 mmHg 64%
    09:00 +35°C° 0 mm 5 mps 757 mmHg 55%
    10:00 +37°C° 0 mm 5 mps 756 mmHg 47%
    11:00 +40°C° 0 mm 5 mps 756 mmHg 39%
    12:00 +40°C° 0 mm 6 mps 755 mmHg 40%
    13:00 +40°C° 0 mm 7 mps 754 mmHg 42%
    14:00 +40°C° 0 mm 8 mps 754 mmHg 43%
    15:00 +39°C° 0 mm 7 mps 754 mmHg 50%
    16:00 +36°C° 0 mm 7 mps 753 mmHg 57%
    17:00 +34°C° 0 mm 7 mps 753 mmHg 64%
    18:00 +33°C° 0 mm 6 mps 754 mmHg 68%
    19:00 +32°C° 0 mm 5 mps 755 mmHg 72%
    20:00 +30°C° 0 mm 5 mps 755 mmHg 75%
    21:00 +30°C° 0 mm 4 mps 755 mmHg 79%
    22:00 +29°C° 0 mm 4 mps 756 mmHg 83%
    23:00 +29°C° 0 mm 4 mps 756 mmHg 86%

    10 April, Friday

    Time Temperature Precipitation Wind Pressure Humidity
    00:00 +28°C° 0 mm 4 mps 755 mmHg 88%
    01:00 +28°C° 0 mm 4 mps 755 mmHg 89%
    02:00 +28°C° 0 mm 3 mps 754 mmHg 91%
    03:00 +27°C° 0 mm 4 mps 754 mmHg 91%
    04:00 +27°C° 0 mm 4 mps 755 mmHg 90%
    05:00 +27°C° 0 mm 4 mps 755 mmHg 90%
    06:00 +29°C° 0 mm 4 mps 756 mmHg 81%
    07:00 +30°C° 0 mm 4 mps 756 mmHg 71%
    08:00 +33°C° 0 mm 4 mps 757 mmHg 62%
    09:00 +35°C° 0 mm 5 mps 757 mmHg 54%
    10:00 +36°C° 0 mm 5 mps 757 mmHg 46%
    11:00 +39°C° 0 mm 5 mps 757 mmHg 38%
    12:00 +39°C° 0 mm 6 mps 756 mmHg 38%
    13:00 +40°C° 0 mm 6 mps 755 mmHg 37%
    14:00 +40°C° 0 mm 7 mps 754 mmHg 37%
    15:00 +38°C° 0 mm 7 mps 754 mmHg 43%
    16:00 +36°C° 0 mm 7 mps 754 mmHg 49%
    17:00 +34°C° 0 mm 7 mps 754 mmHg 56%
    18:00 +32°C° 0 mm 6 mps 755 mmHg 61%
    19:00 +30°C° 0 mm 6 mps 756 mmHg 67%
    20:00 +29°C° 0 mm 5 mps 756 mmHg 72%
    21:00 +29°C° 0 mm 4 mps 757 mmHg 75%
    22:00 +28°C° 0 mm 4 mps 757 mmHg 77%
    23:00 +28°C° 0 mm 3 mps 757 mmHg 80%

    11 April, Saturday

    Time Temperature Precipitation Wind Pressure Humidity
    00:00 +27°C° 0 mm 3 mps 757 mmHg 81%
    01:00 +27°C° 0 mm 3 mps 756 mmHg 82%
    02:00 +27°C° 0 mm 3 mps 756 mmHg 83%
    03:00 +27°C° 0 mm 3 mps 756 mmHg 84%
    04:00 +27°C° 0 mm 3 mps 756 mmHg 85%
    05:00 +26°C° 0 mm 3 mps 756 mmHg 86%
    06:00 +28°C° 0 mm 3 mps 757 mmHg 78%
    07:00 +30°C° 0 mm 3 mps 757 mmHg 69%
    08:00 +33°C° 0 mm 3 mps 758 mmHg 60%
    09:00 +35°C° 0 mm 4 mps 758 mmHg 51%
    10:00 +36°C° 0 mm 4 mps 757 mmHg 43%
    11:00 +39°C° 0 mm 5 mps 757 mmHg 34%
    12:00 +39°C° 0 mm 5 mps 756 mmHg 34%
    13:00 +39°C° 0 mm 6 mps 756 mmHg 34%
    14:00 +40°C° 0 mm 6 mps 755 mmHg 34%
    15:00 +38°C° 0 mm 6 mps 755 mmHg 41%
    16:00 +35°C° 0 mm 6 mps 755 mmHg 48%
    17:00 +33°C° 0 mm 6 mps 754 mmHg 55%
    18:00 +32°C° 0 mm 5 mps 755 mmHg 62%
    19:00 +30°C° 0 mm 5 mps 756 mmHg 70%
    20:00 +28°C° 0 mm 4 mps 756 mmHg 77%
    21:00 +28°C° 0 mm 3 mps 756 mmHg 79%
    22:00 +28°C° 0 mm 3 mps 757 mmHg 82%
    23:00 +27°C° 0 mm 2 mps 757 mmHg 84%
    Show more